Back to catalog

FENGYUN 1C DEB

AlivePO
NORAD 31663·DEBRIS·🇨🇳 China

Launched May 10, 1999 from Taiyuan Satellite Launch Center

Loading…

Next Passes (next 24 hours)

TLE

FreshSource: Space-Track

Epoch: Sep 12, 2026, 13:38 UTC

1 31663U 99025CBV 26255.56867211  .00001623  00000-0  17647-3 0  9990
2 31663  98.8422 194.6580 0188103  95.2943 266.9758 14.77693324 33162

Track FENGYUN 1C DEB in real time with AllMySat

Download on the App Store